Tracking 20942 objects as of 15-Jul-2020
HD Live streaming from Space Station
objects crossing your sky now

BUCCANEER RMM

Track BUCCANEER RMM now!
10-day predictions


NORAD ID: 43014
Int'l Code: 2017-073B
Perigee: 464.6 km
Apogee: 812.9 km
Inclination: 97.7 °
Period: 97.3 minutes
Semi major axis: 7009 km
RCS: Unknown
Launch date: November 18, 2017
Source: United States (US)
Launch site: AIR FORCE WESTERN TEST RANGE (AFWTR)
aabbcc
Your satellite tracking list
Your tracking list is empty




NASA's NSSDC Master Catalog

Two Line Element Set (TLE):
1 43014U 17073B   20196.72288305  .00001065  00000-0  90517-4 0  9991
2 43014  97.7150 106.7617 0248454 323.2769  35.1637 14.79275103143170
Source of the keplerian elements: AFSPC